Flag for United Kingdom Weather past 2 weeks in Cardiff, Wales, United Kingdom

Now
54 °F

Scattered clouds.


Feels Like: 48 °F
Forecast: 45 / 59 °F
Wind: 21 mph from Northeast

Location: Wales Airport


UV Index: 3 (Moderate)

Visibility: 4 mi


Pressure: 29.59 "Hg

Humidity: 88%

Dew point: 50 °F

Location of CardiffLocation

Historic Weather in Cardiff

°F

Cardiff temperature yesterday

Maximum temperature yesterday: 54 °F (at 4:20 PM)
Minimum temperature yesterday: 39 °F (at 4:20 AM)
Average temperature yesterday: 46 °F

Past Weeks' High & Low Weather Summary

 TemperatureHumidityPressure
High59 °F (Apr 15, 2:50 PM)100% (Apr 5, 2:50 PM)30.42 "Hg (Apr 5, 2:50 PM)
Low39 °F (Apr 11, 5:50 AM)42% (Apr 15, 3:50 PM)29.62 "Hg (Apr 7, 1:20 PM)
Average49 °F82%30.12 "Hg
* Reported Apr 5 2:20 PM — Apr 20 2:50 PM, Cardiff, Weather by CustomWeather, © 2014

Note: Actual official high and low records may vary slightly from our data, if they occured in-between our weather recording intervals... More about our weather records

Advertising

Historic Weather Conditions — Data for Previous 24 hours

 ConditionsComfort  
Time TempWeatherWind HumidityBarometerVisibility
2:50 PM
Apr 20
52 °FScattered clouds.22 mph88%29.62 "Hg4 mi
2:20 PM52 °FLight rain. Passing clouds.22 mph88%29.65 "Hg3 mi
1:50 PM52 °FPassing clouds.18 mph82%29.65 "HgN/A
1:20 PM50 °FLight rain. Scattered clouds.22 mph88%29.65 "Hg5 mi
12:50 PM50 °FLight rain. Partly sunny.20 mph82%29.68 "Hg5 mi
12:20 PM50 °FPartly sunny.20 mph82%29.71 "Hg5 mi
11:50 AM50 °FPartly sunny.14 mph82%29.71 "Hg5 mi
11:20 AM50 °FPartly sunny.21 mph82%29.71 "Hg4 mi
10:50 AM50 °FPartly sunny.18 mph82%29.74 "Hg4 mi
10:20 AM48 °FBroken clouds.12 mph82%29.74 "Hg4 mi
9:50 AM46 °FPartly sunny.12 mph87%29.77 "Hg5 mi
9:20 AM46 °FBroken clouds.12 mph82%29.77 "Hg6 mi
8:50 AM45 °FBroken clouds.9 mph87%29.80 "Hg6 mi
8:20 AM45 °FPartly sunny.13 mph87%29.80 "Hg6 mi
7:50 AM45 °FPartly sunny.14 mph87%29.83 "HgN/A
7:20 AM43 °FPartly sunny.14 mph93%29.83 "HgN/A
6:50 AM43 °FPassing clouds.12 mph87%29.83 "HgN/A
6:20 AM43 °FClear.8 mph87%29.83 "Hg10 mi
5:50 AM39 °FClear.8 mph93%29.86 "Hg10 mi
5:20 AM39 °FClear.7 mph93%29.86 "Hg10 mi
4:50 AM41 °FClear.13 mph87%29.86 "Hg10 mi
4:20 AM41 °FClear.15 mph87%29.89 "Hg10 mi
3:50 AM43 °FClear.12 mph87%29.89 "Hg10 mi
3:20 AM43 °FClear.10 mph87%29.92 "Hg10 mi
2:50 AM43 °FQuite cool.13 mph87%29.92 "HgN/A
2:20 AM45 °FQuite cool.13 mph81%29.92 "HgN/A
1:50 AM45 °FQuite cool.13 mph81%29.95 "HgN/A
1:20 AM46 °FCool.13 mph82%29.95 "HgN/A
12:50 AM46 °FClear.14 mph76%29.95 "Hg10 mi
12:20 AM46 °FCool.13 mph76%29.98 "HgN/A
11:50 PM
Apr 19
48 °FCool.12 mph71%29.98 "HgN/A
11:20 PM46 °FClear.12 mph71%29.98 "Hg10 mi
10:50 PM46 °FCool.8 mph71%29.98 "HgN/A
10:20 PM48 °FClear.9 mph66%29.98 "Hg10 mi
9:50 PM46 °FPassing clouds.8 mph66%29.98 "HgN/A
9:20 PM46 °FPassing clouds.7 mph66%29.98 "HgN/A
8:50 PM50 °FPassing clouds.8 mph58%29.98 "HgN/A
8:20 PM50 °FCool.8 mph58%29.98 "HgN/A
7:50 PM50 °FPassing clouds.9 mph58%29.98 "HgN/A
7:20 PM52 °FPassing clouds.12 mph54%29.98 "HgN/A
6:50 PM54 °FPassing clouds.12 mph51%29.98 "HgN/A
6:20 PM54 °FCool.13 mph51%30.01 "HgN/A
5:50 PM54 °FCool.14 mph51%30.01 "HgN/A
5:20 PM52 °FPassing clouds.9 mph54%30.01 "HgN/A
4:50 PM54 °FPassing clouds.13 mph51%30.04 "HgN/A
4:20 PM54 °FCool.15 mph51%30.04 "HgN/A
3:50 PM52 °FScattered clouds.14 mph54%30.04 "HgN/A
3:20 PM52 °FScattered clouds.12 mph54%30.04 "HgN/A
Weather by CustomWeather, © 2014

See weather overview